DW0226 Weather Reports


Display with metric or nautical units.
time (UTC)temp
F
wind
direction
speed
MPH
gust
MPH
rain 1hr
in
rain 24hr
in
rain mn
in
humidity
%
barometer
mb
20260903091516 71 0.0 0.0 0.00 0.04 0.00 97 1014.9
20260903090536 71 0.0 0.0 0.00 0.04 0.00 97 1014.8
20260903085516 72 0.0 0.0 0.00 0.04 0.00 97 1014.7
20260903084537 71 0.0 0.0 0.00 0.04 0.00 97 1015.1
20260903083516 71 0.0 0.0 0.00 0.04 0.00 97 1015.3
20260903082516 71 0.0 0.0 0.00 0.04 0.00 97 1015.3
20260903081523 71 0.0 0.0 0.00 0.04 0.00 97 1015.2
20260903080516 72 0.0 0.0 0.00 0.04 0.00 97 1015.1
20260903075517 72 0.0 0.0 0.00 0.04 0.00 97 1015.0
20260903074516 72 0.0 0.0 0.00 0.04 0.00 97 1015.1
20260903073516 72 0.0 0.0 0.00 0.04 0.00 97 1014.8
20260903072516 72 0.0 0.0 0.00 0.04 0.00 97 1014.9
20260903071516 72 0.0 0.0 0.00 0.04 0.00 97 1015.0
20260903070537 72 0.0 0.0 0.00 0.04 0.00 97 1014.9
20260903065516 71 0.0 0.0 0.00 0.04 0.00 97 1014.9
20260903064516 71 0.0 0.0 0.00 0.04 0.00 97 1014.9
20260903063516 71 0.0 0.0 0.00 0.04 0.00 97 1015.0
20260903062536 71 0.0 0.0 0.00 0.04 0.00 97 1015.3
20260903061516 71 0.0 0.0 0.00 0.04 0.00 97 1015.5
20260903060516 71 0.0 0.0 0.00 0.04 0.00 97 1015.5
20260903055516 71 0.0 0.0 0.00 0.04 0.00 97 1015.7
20260903054557 71 0.0 0.0 0.00 0.04 0.00 97 1015.7
20260903053516 71 0.0 0.0 0.00 0.04 0.00 97 1015.8
20260903053016 71 0.0 0.0 0.00 0.04 0.00 97 1015.8
20260903052016 71 0.0 0.0 0.00 0.04 0.00 97 1015.7
20260903051017 71 0.0 0.0 0.00 0.04 0.00 96 1015.8
20260903050036 71 0.0 0.0 0.00 0.04 0.00 96 1015.9
20260903045037 71 0.0 0.0 0.00 0.04 0.00 96 1015.9
20260903044016 71 0.0 0.0 0.00 0.04 0.00 96 1015.8
20260903043017 71 0.0 0.0 0.00 0.04 0.00 96 1015.8
20260903042039 72 0.0 0.0 0.00 0.04 0.00 96 1015.9
20260903041016 72 0.0 0.0 0.00 0.04 0.00 96 1015.8
20260903040016 72 0.0 2.0 0.00 0.04 0.04 96 1015.8
20260903035017 72 0.0 2.0 0.00 0.04 0.04 96 1015.8
20260903034017 72 0.0 1.0 0.00 0.04 0.04 96 1015.7
20260903033017 71 0.0 0.0 0.00 0.04 0.04 96 1015.5
20260903032018 71 0.0 0.0 0.00 0.04 0.04 96 1015.5
20260903031018 71 0.0 0.0 0.00 0.04 0.04 96 1015.4
20260903030018 71 0.0 0.0 0.00 0.04 0.04 96 1015.5
20260903025017 71 0.0 0.0 0.00 0.04 0.04 95 1015.5
20260903024017 72 0.0 0.0 0.00 0.04 0.04 96 1015.6
20260903023017 72 0.0 0.0 0.00 0.04 0.04 96 1015.6
20260903022017 72 0.0 0.0 0.00 0.04 0.04 96 1015.6
20260903021017 72 0.0 0.0 0.00 0.04 0.04 96 1015.8
20260903020017 72 0.0 1.0 0.00 0.04 0.04 95 1015.9
20260903015017 72 0.0 0.0 0.00 0.04 0.04 95 1016.0
20260903014016 72 0.0 1.0 0.00 0.04 0.04 95 1016.0
20260903013016 72 0.0 1.0 0.00 0.04 0.04 95 1016.0
20260903012018 73 0.0 1.0 0.00 0.04 0.04 95 1015.9
20260903011057 73 0.0 0.0 0.00 0.04 0.04 95 1015.8
20260903010016 73 0.0 0.0 0.00 0.04 0.04 95 1015.9
20260903005016 73 0.0 0.0 0.00 0.04 0.04 95 1015.7
20260903004019 73 0.0 2.0 0.00 0.04 0.04 95 1015.8
20260903003017 73 0.0 0.0 0.00 0.04 0.04 95 1015.6
20260903002016 73 0.0 0.0 0.00 0.04 0.04 94 1015.5
20260903001017 73 0.0 0.0 0.00 0.04 0.04 94 1015.4
20260903000017 74 0.0 0.0 0.00 0.04 0.04 94 1015.3
20260902235017 74 0.0 0.0 0.00 0.04 0.04 94 1015.1
20260902234049 74 0.0 0.0 0.00 0.04 0.04 94 1015.3
20260902233017 74 0.0 0.0 0.00 0.04 0.04 94 1015.5
20260902232017 75 0.0 0.0 0.00 0.04 0.04 94 1015.6
20260902231018 75 0.0 0.0 0.00 0.04 0.04 94 1015.6
20260902230017 75 0.0 0.0 0.00 0.04 0.04 94 1015.6
20260902225017 75 0.0 1.0 0.00 0.04 0.04 93 1016.0
20260902224017 75 0.0 0.0 0.00 0.04 0.04 93 1015.9
20260902223016 75 0.0 1.0 0.00 0.04 0.04 93 1015.8
20260902222018 75 0.0 0.0 0.00 0.04 0.04 93 1015.4
20260902221037 76 90 1.0 4.0 0.00 0.04 0.04 93 1015.4
20260902220017 76 0.0 1.0 0.00 0.04 0.04 92 1016.2
20260902215016 76 0.0 2.0 0.00 0.04 0.04 93 1016.3
20260902214017 76 90 2.0 5.0 0.00 0.04 0.04 92 1015.3
20260902213028 76 0.0 3.0 0.00 0.04 0.04 93 1015.8
20260902212018 77 68 1.0 3.0 0.00 0.04 0.04 93 1016.4
20260902211017 77 0.0 0.0 0.00 0.04 0.04 93 1016.6
20260902210017 77 0.0 1.0 0.00 0.04 0.04 93 1016.3
20260902205017 76 90 1.0 3.0 0.00 0.04 0.04 93 1015.9
20260902204018 76 90 1.0 3.0 0.00 0.04 0.04 93 1016.0
20260902203017 76 0.0 1.0 0.00 0.04 0.04 93 1016.7
20260902202016 76 0.0 0.0 0.00 0.04 0.04 93 1016.8
20260902201016 76 0.0 0.0 0.01 0.04 0.04 92 1017.0
20260902200017 76 0.0 1.0 0.02 0.04 0.04 92 1017.0
20260902195017 77 0.0 0.0 0.04 0.04 0.04 91 1016.7
20260902194017 77 0.0 0.0 0.04 0.04 0.04 91 1016.7
20260902193038 77 0.0 2.0 0.04 0.04 0.04 90 1016.9
20260902192038 78 135 1.0 2.0 0.04 0.04 0.04 87 1016.7
20260902191057 80 90 3.0 7.0 0.03 0.03 0.03 81 1016.5
20260902190018 84 45 1.0 7.0 0.02 0.02 0.02 77 1017.9
20260902185017 87 45 2.0 9.0 0.00 0.00 0.00 76 1017.4
20260902184017 87 68 3.0 7.0 0.00 0.00 0.00 78 1017.3
20260902183057 87 90 3.0 7.0 0.00 0.00 0.00 77 1017.3
20260902182038 88 113 3.0 5.0 0.00 0.00 0.00 78 1017.1
20260902181018 88 90 3.0 6.0 0.00 0.00 0.00 77 1017.2
20260902180018 87 90 3.0 7.0 0.00 0.00 0.00 78 1017.0
20260902175017 87 90 3.0 7.0 0.00 0.00 0.00 78 1017.0
20260902174018 87 135 3.0 6.0 0.00 0.00 0.00 79 1016.9
20260902173017 87 90 3.0 6.0 0.00 0.00 0.00 79 1016.8
20260902172017 87 90 3.0 11.0 0.00 0.00 0.00 79 1017.0
20260902171017 87 113 1.0 4.0 0.00 0.00 0.00 79 1017.0
20260902170038 87 158 2.0 6.0 0.00 0.00 0.00 79 1016.6
20260902165120 86 113 3.0 5.0 0.00 0.00 0.00 79 1016.6
20260902164017 86 158 3.0 7.0 0.00 0.00 0.00 80 1016.5
20260902163018 86 113 4.0 7.0 0.00 0.00 0.00 79 1016.5
20260902162037 86 90 4.0 8.0 0.00 0.00 0.00 78 1016.5
20260902161017 87 90 4.0 10.0 0.00 0.00 0.00 79 1016.6
20260902160017 87 90 3.0 6.0 0.00 0.00 0.00 78 1016.6
20260902155037 88 90 2.0 5.0 0.00 0.00 0.00 77 1016.6
20260902154017 88 180 2.0 5.0 0.00 0.00 0.00 78 1016.7
20260902153017 88 113 2.0 5.0 0.00 0.00 0.00 77 1016.6
20260902152017 87 158 2.0 5.0 0.00 0.00 0.00 80 1016.6
20260902151017 86 68 2.0 6.0 0.00 0.00 0.00 80 1016.7
20260902150017 86 90 4.0 7.0 0.00 0.00 0.00 79 1016.7
20260902145039 87 68 1.0 4.0 0.00 0.00 0.00 79 1016.8
20260902144017 87 45 2.0 6.0 0.00 0.00 0.00 80 1016.7
20260902143017 86 90 3.0 7.0 0.00 0.00 0.00 80 1016.5
20260902142018 87 68 1.0 4.0 0.00 0.00 0.00 81 1016.5
20260902141017 86 45 3.0 7.0 0.00 0.00 0.00 81 1016.5
20260902140016 85 90 2.0 6.0 0.00 0.00 0.00 81 1016.4
20260902135016 85 45 2.0 5.0 0.00 0.00 0.00 82 1016.4
20260902134017 84 45 2.0 6.0 0.00 0.00 0.00 84 1016.3
20260902133017 83 68 2.0 7.0 0.00 0.00 0.00 87 1016.3
20260902132017 81 0.0 4.0 0.00 0.00 0.00 91 1016.2
20260902131017 79 68 1.0 4.0 0.00 0.00 0.00 93 1016.0
20260902130038 79 68 2.0 9.0 0.00 0.00 0.00 92 1015.9
20260902125018 78 68 2.0 6.0 0.00 0.00 0.00 94 1015.9
20260902124016 77 68 1.0 4.0 0.00 0.00 0.00 95 1015.9
20260902123018 77 0.0 3.0 0.00 0.00 0.00 95 1016.0
20260902122038 76 68 1.0 4.0 0.00 0.00 0.00 95 1016.0
20260902121017 76 68 1.0 2.0 0.00 0.00 0.00 95 1015.9
20260902120018 76 0.0 2.0 0.00 0.00 0.00 96 1016.0
20260902115016 76 0.0 0.0 0.00 0.00 0.00 96 1015.9
20260902114022 76 0.0 0.0 0.00 0.00 0.00 96 1015.9
20260902113017 75 0.0 0.0 0.00 0.00 0.00 95 1016.0
20260902112016 75 0.0 0.0 0.00 0.00 0.00 96 1016.0
20260902111017 75 0.0 0.0 0.00 0.00 0.00 96 1015.9
20260902110038 75 0.0 1.0 0.00 0.00 0.00 95 1015.9
20260902105038 75 0.0 0.0 0.00 0.00 0.00 95 1015.6
20260902104017 75 0.0 0.0 0.00 0.00 0.00 95 1015.8
20260902103037 75 0.0 1.0 0.00 0.00 0.00 95 1015.5
20260902102017 74 0.0 0.0 0.00 0.00 0.00 95 1015.4
20260902101016 74 0.0 1.0 0.00 0.00 0.00 95 1015.3
20260902100018 74 0.0 1.0 0.00 0.00 0.00 95 1015.2
20260902095057 74 0.0 1.0 0.00 0.00 0.00 95 1015.2
20260902094016 74 0.0 0.0 0.00 0.00 0.00 95 1015.1
20260902093016 74 0.0 2.0 0.00 0.00 0.00 95 1015.0